Tracking 18852 objects as of 24-Nov-2017
HD Live streaming from Space Station
objects crossing your sky now

FENGYUN 1C DEB

Track FENGYUN 1C DEB now!
10-day predictions


NORAD ID: 30366
Int'l Code: 1999-025ACD
Perigee: 758.2 km
Apogee: 858.2 km
Inclination: 99.0 °
Period: 100.9 minutes
Semi major axis: 7179 km
RCS: 0.034 m2 (small)
Launch date: May 10, 1999
Source: People's Republic of China (PRC)
Launch site: Taiyaun Space Center, China (TSC)

Note: This is SATELLITE DEBRIS
aabbcc
Your satellite tracking list
Your tracking list is empty




NASA's NSSDC Master Catalog

Two Line Element Set (TLE):
1 30366U 99025ACD 17327.90203088  .00000272  00000-0  12687-3 0  9991
2 30366  98.9974 105.3181 0069661  97.6912  26.8274 14.27222455563543
Source of the keplerian elements: AFSPC